CST,Max TemperatureF,Mean TemperatureF,Min TemperatureF,Max Dew PointF,MeanDew PointF,Min DewpointF,Max Humidity, Mean Humidity, Min Humidity, Max Sea Level PressureIn, Mean Sea Level PressureIn, Min Sea Level PressureIn, Max VisibilityMiles, Mean VisibilityMiles, Min VisibilityMiles, Max Wind SpeedMPH, Mean Wind SpeedMPH, Max Gust SpeedMPH,PrecipitationIn, CloudCover, Events, WindDirDegrees
2013-2-1,23,10,-3,16,0,-10,77,69,60,30.43,30.31,30.11,10,10,10,17,10,22,0.00,4,,231
2013-2-2,26,22,17,22,15,9,91,77,67,30.15,30.09,30.01,10,9,1,18,12,30,0.00,7,Snow,268
2013-2-3,29,24,19,22,16,10,93,72,56,30.18,30.05,29.90,10,10,5,24,10,38,0.00,4,Snow,233
2013-2-4,29,22,16,23,19,15,95,79,63,29.99,29.90,29.77,10,10,7,20,10,26,0.00,3,,330
2013-2-5,39,28,18,31,25,17,93,81,67,30.11,29.94,29.84,10,8,5,17,7,29,0.00,3,,261
2013-2-6,45,33,21,33,29,20,96,79,57,30.18,30.09,29.97,10,8,3,17,7,21,0.00,1,Rain,151
2013-2-7,39,35,31,38,34,29,97,94,87,30.11,29.96,29.87,10,4,1,18,9,25,0.05,8,Rain,228
2013-2-8,31,30,28,29,26,24,90,84,77,30.36,30.30,30.12,10,10,5,16,10,23,0.00,8,,15
2013-2-9,35,31,27,30,27,25,90,85,76,30.33,30.17,29.96,10,10,10,18,12,23,0.00,6,,145
2013-2-10,55,44,34,49,37,26,97,83,53,29.95,29.60,29.37,10,7,2,37,17,47,0.07,8,Rain,174
2013-2-11,38,34,29,26,23,20,77,67,57,30.13,29.93,29.63,10,10,10,32,21,46,0.00,8,,278
2013-2-12,46,36,27,27,23,17,81,65,33,30.15,30.05,29.91,10,10,7,12,7,,0.00,3,,240
2013-2-13,52,40,29,30,27,23,79,61,33,29.91,29.80,29.71,10,9,5,13,7,20,0.00,1,,220
2013-2-14,46,40,34,30,27,24,70,58,46,30.10,29.89,29.71,10,10,10,21,12,30,0.00,5,Rain,282
2013-2-15,37,30,24,22,10,0,65,46,21,30.28,30.24,30.10,10,10,10,18,11,25,0.00,1,,309
2013-2-16,35,26,16,18,11,7,71,56,36,30.26,30.20,30.15,10,10,10,16,9,20,0.00,1,,320
2013-2-17,45,33,21,25,17,12,71,52,30,30.15,30.02,29.78,10,10,10,20,10,26,0.00,0,,134
2013-2-18,60,42,24,39,29,11,81,61,40,29.86,29.66,29.52,10,9,1,28,16,39,0.11,4,Rain-Snow,224
2013-2-19,30,23,16,12,7,2,64,50,33,30.32,30.09,29.86,10,10,7,26,20,38,0.00,4,Snow,290
2013-2-20,27,18,8,15,5,-3,68,54,37,30.44,30.37,30.32,10,10,10,15,9,20,0.00,0,,4
2013-2-21,32,26,19,26,19,12,79,71,60,30.35,30.13,29.84,10,6,0,25,12,31,0.01,5,Snow,80
2013-2-22,34,31,28,28,22,16,83,68,54,30.00,29.86,29.75,10,8,2,18,10,22,0.01,8,Snow,237
2013-2-23,35,28,21,18,16,12,69,58,44,30.00,29.97,29.95,10,10,10,12,7,,0.00,3,,230
2013-2-24,44,30,17,27,18,10,75,64,42,30.10,30.06,30.00,10,8,5,8,4,,0.00,0,,116
2013-2-25,45,36,26,31,27,21,80,67,49,30.10,30.01,29.86,10,7,3,17,7,22,0.00,3,,57
2013-2-26,39,37,35,32,29,28,83,74,64,29.84,29.64,29.54,10,5,0,26,19,34,0.02,8,Rain-Snow,19
2013-2-27,37,36,34,30,29,28,82,77,72,29.88,29.76,29.67,10,4,1,17,13,22,0.00,8,Snow,315
2013-2-28,39,36,32,30,27,26,80,72,60,30.12,30.03,29.88,10,7,2,14,10,18,0.00,8,Snow,309